Jackson, MN

9:52 AM CDT on October 17, 2017 (GMT -0500)
Jackson Municipal

Weather History for KMJQ - August, 2014

Change the Weather History Date:

Sunday, August 17, 2014

  Actual Average Record
Temperature  
Mean Temperature 75 °F -  
Max Temperature 86 °F 76 °F 100 °F (2003)
Min Temperature 64 °F 56 °F 44 °F (2012)
Cooling Degree Days 10    
Growing Degree Days 25 (Base 50)    
Moisture  
Dew Point 67 °F    
Average Humidity 77    
Maximum Humidity 94    
Minimum Humidity 58    
Precipitation  
Precipitation 0.00 in - - ()
Sea Level Pressure  
Sea Level Pressure 29.93 in    
Wind  
Wind Speed 6 mph (SSW)    
Max Wind Speed 17 mph    
Max Gust Speed 23 mph    
Visibility 9 miles    
Events      
Averages and records for this station are not official NWS values.
T = Trace of Precipitation, MM = Missing Value Source: NWS Daily Summary

Daily Weather History Graph

Daily Weather History Graph

Search for Another Location

Airport or City:

Trip Planner

Search our weather history database for the weather conditions in past years. The results will help you decide how hot, cold, wet, or windy it might be!

Date:

Astronomy

Aug. 17, 2014 Rise Set
Actual Time 6:26 AM CDT 8:20 PM CDT
Civil Twilight 5:55 AM CDT 8:51 PM CDT
Nautical Twilight 5:18 AM CDT 9:28 PM CDT
Astronomical Twilight 4:37 AM CDT 10:09 PM CDT
Moon No Moon Rise 2:28 PM CDT
Length of Visible Light 14h 55m
Length of Day
13h 53m
Waning Gibbous, 48% of the Moon is Illuminated
Aug 17
Waning Gibbous
Aug 25
New
Sep 2
First Quarter
Sep 8
Full
Sep 15
Last Quarter

Hourly Weather History & Observations

Time (CDT) Temp. Heat Index Dew Point Humidity Pressure Visibility Wind Dir Wind Speed Gust Speed Precip Events Conditions
12:14 AM 69.8 °F - 66.2 °F 88% 29.95 in 7.0 mi SSE 4.6 mph - N/A   Clear
12:34 AM 69.8 °F - 66.2 °F 88% 29.95 in 7.0 mi South 3.5 mph - N/A   Clear
12:54 AM 68.0 °F - 64.4 °F 88% 29.95 in 7.0 mi South 3.5 mph - N/A   Clear
1:14 AM 68.0 °F - 64.4 °F 88% 29.95 in 7.0 mi South 3.5 mph - N/A   Clear
1:34 AM 68.0 °F - 64.4 °F 88% 29.95 in 7.0 mi South 4.6 mph - N/A   Clear
2:14 AM 68.0 °F - 64.4 °F 88% 29.95 in 7.0 mi South 3.5 mph - N/A   Overcast
2:34 AM 68.0 °F - 64.4 °F 88% 29.95 in 7.0 mi South 4.6 mph - N/A   Mostly Cloudy
2:54 AM 68.0 °F - 64.4 °F 88% 29.95 in 7.0 mi South 4.6 mph - N/A   Scattered Clouds
3:14 AM 68.0 °F - 64.4 °F 88% 29.95 in 7.0 mi South 4.6 mph - N/A   Clear
3:34 AM 68.0 °F - 64.4 °F 88% 29.95 in 7.0 mi South 4.6 mph - N/A   Mostly Cloudy
3:54 AM 68.0 °F - 64.4 °F 88% 29.95 in 7.0 mi South 4.6 mph - N/A   Scattered Clouds
4:14 AM 68.0 °F - 64.4 °F 88% 29.95 in 7.0 mi South 5.8 mph - N/A   Clear
4:34 AM 68.0 °F - 64.4 °F 88% 29.95 in 7.0 mi South 5.8 mph - N/A   Clear
4:54 AM 66.2 °F - 62.6 °F 88% 29.95 in 5.0 mi SSW 4.6 mph - N/A   Clear
5:13 AM 66.2 °F - 62.6 °F 88% 29.95 in 5.0 mi SSW 5.8 mph - N/A   Clear
5:34 AM 66.2 °F - 62.6 °F 88% 29.95 in 5.0 mi SSW 4.6 mph - N/A   Clear
5:54 AM 64.4 °F - 62.6 °F 94% 29.96 in 5.0 mi SW 3.5 mph - N/A   Clear
6:14 AM 66.2 °F - 62.6 °F 88% 29.95 in 7.0 mi South 4.6 mph - N/A   Clear
6:34 AM 66.2 °F - 62.6 °F 88% 29.96 in 7.0 mi SSW 4.6 mph - N/A   Clear
6:54 AM 66.2 °F - 62.6 °F 88% 29.95 in 3.0 mi South 4.6 mph - N/A   Clear
7:14 AM 68.0 °F - 64.4 °F 88% 29.96 in 4.0 mi SSW 4.6 mph - N/A   Clear
7:34 AM 68.0 °F - 64.4 °F 88% 29.96 in 5.0 mi SSW 4.6 mph - N/A   Clear
7:54 AM 69.8 °F - 66.2 °F 88% 29.96 in 7.0 mi SSW 3.5 mph - N/A   Clear
8:14 AM 69.8 °F - 66.2 °F 88% 29.97 in 10.0 mi SW 4.6 mph - N/A   Clear
8:34 AM 71.6 °F - 68.0 °F 88% 29.97 in 10.0 mi SW 5.8 mph - N/A   Clear
8:54 AM 73.4 °F - 68.0 °F 83% 29.97 in 10.0 mi SW 5.8 mph - N/A   Clear
9:14 AM 73.4 °F - 68.0 °F 83% 29.97 in 10.0 mi SW 9.2 mph - N/A   Clear
9:34 AM 75.2 °F - 68.0 °F 78% 29.96 in 10.0 mi SSW 9.2 mph - N/A   Clear
9:54 AM 77.0 °F - 68.0 °F 74% 29.97 in 10.0 mi SSW 8.1 mph - N/A   Clear
10:14 AM 78.8 °F - 68.0 °F 69% 29.98 in 10.0 mi SSW 8.1 mph - N/A   Clear
10:34 AM 78.8 °F - 68.0 °F 69% 29.98 in 10.0 mi South 10.4 mph - N/A   Clear
10:54 AM 78.8 °F - 68.0 °F 69% 29.99 in 10.0 mi South 10.4 mph - N/A   Scattered Clouds
11:14 AM 78.8 °F - 68.0 °F 69% 29.98 in 10.0 mi SSW 10.4 mph 18.4 mph N/A   Mostly Cloudy
11:34 AM 80.6 °F 83.2 °F 68.0 °F 65% 29.98 in 10.0 mi SSW 11.5 mph - N/A   Scattered Clouds
11:53 AM 78.8 °F - 69.8 °F 74% 29.98 in 10.0 mi South 9.2 mph - N/A   Mostly Cloudy
12:14 PM 80.6 °F 83.2 °F 68.0 °F 65% 29.97 in 10.0 mi South 10.4 mph - N/A   Scattered Clouds
12:33 PM 80.6 °F 83.2 °F 68.0 °F 65% 29.97 in 10.0 mi South 10.4 mph - N/A   Mostly Cloudy
12:54 PM 80.6 °F 83.2 °F 68.0 °F 65% 29.96 in 10.0 mi South 10.4 mph 17.3 mph N/A   Mostly Cloudy
1:14 PM 82.4 °F 85.4 °F 68.0 °F 62% 29.95 in 10.0 mi South 11.5 mph - N/A   Mostly Cloudy
1:33 PM 82.4 °F 85.4 °F 68.0 °F 62% 29.95 in 10.0 mi South 12.7 mph 17.3 mph N/A   Mostly Cloudy
1:54 PM 82.4 °F 85.4 °F 68.0 °F 62% 29.95 in 10.0 mi South 12.7 mph 17.3 mph N/A   Scattered Clouds
2:14 PM 82.4 °F 86.3 °F 69.8 °F 66% 29.94 in 10.0 mi South 10.4 mph 19.6 mph N/A   Scattered Clouds
2:33 PM 84.2 °F 87.3 °F 68.0 °F 58% 29.93 in 10.0 mi South 15.0 mph 20.7 mph N/A   Scattered Clouds
2:54 PM 84.2 °F 88.4 °F 69.8 °F 62% 29.93 in 10.0 mi SSW 12.7 mph 20.7 mph N/A   Scattered Clouds
3:14 PM 84.2 °F 87.3 °F 68.0 °F 58% 29.92 in 10.0 mi South 15.0 mph - N/A   Scattered Clouds
3:33 PM 84.2 °F 88.4 °F 69.8 °F 62% 29.92 in 10.0 mi South 12.7 mph 20.7 mph N/A   Scattered Clouds
3:54 PM 86.0 °F 90.4 °F 69.8 °F 58% 29.91 in 10.0 mi SSW 15.0 mph 18.4 mph N/A   Scattered Clouds
4:14 PM 84.2 °F 88.4 °F 69.8 °F 62% 29.91 in 10.0 mi SSW 12.7 mph 20.7 mph N/A   Clear
4:33 PM 82.4 °F 86.3 °F 69.8 °F 66% 29.90 in 10.0 mi SSW 13.8 mph 18.4 mph N/A   Scattered Clouds
5:14 PM 84.2 °F 87.3 °F 68.0 °F 58% 29.90 in 10.0 mi West 17.3 mph 23.0 mph N/A   Mostly Cloudy
5:34 PM 84.2 °F 87.3 °F 68.0 °F 58% 29.90 in 10.0 mi West 15.0 mph 19.6 mph N/A   Scattered Clouds
5:54 PM 82.4 °F 85.4 °F 68.0 °F 62% 29.89 in 10.0 mi West 11.5 mph 18.4 mph N/A   Scattered Clouds
6:14 PM 82.4 °F 84.6 °F 66.2 °F 58% 29.88 in 10.0 mi West 10.4 mph - N/A   Clear
6:34 PM 82.4 °F 84.6 °F 66.2 °F 58% 29.88 in 10.0 mi WSW 5.8 mph - N/A   Clear
6:54 PM 82.4 °F 84.6 °F 66.2 °F 58% 29.89 in 10.0 mi WNW 6.9 mph - N/A   Clear
7:14 PM 80.6 °F 83.2 °F 68.0 °F 65% 29.87 in 10.0 mi WSW 5.8 mph - N/A   Clear
7:34 PM 80.6 °F 83.2 °F 68.0 °F 65% 29.86 in 10.0 mi WSW 4.6 mph - N/A   Clear
7:54 PM 78.8 °F - 68.0 °F 69% 29.87 in 10.0 mi SW 3.5 mph - N/A   Clear
8:13 PM 77.0 °F - 68.0 °F 74% 29.88 in 10.0 mi SW 3.5 mph - N/A   Clear
8:34 PM 73.4 °F - 68.0 °F 83% 29.90 in 10.0 mi SW 3.5 mph - N/A   Clear
8:54 PM 73.4 °F - 68.0 °F 83% 29.89 in 10.0 mi Calm Calm - N/A   Clear
9:13 PM 75.2 °F - 68.0 °F 78% 29.89 in 10.0 mi WSW 5.8 mph - N/A   Clear
9:34 PM 73.4 °F - 68.0 °F 83% 29.91 in 10.0 mi West 4.6 mph - N/A   Scattered Clouds
9:54 PM 71.6 °F - 68.0 °F 88% 29.90 in 10.0 mi WSW 4.6 mph - N/A   Clear
10:13 PM 71.6 °F - 68.0 °F 88% 29.91 in 10.0 mi West 6.9 mph - N/A   Clear
10:34 PM 73.4 °F - 68.0 °F 83% 29.90 in 10.0 mi West 6.9 mph - N/A   Clear
10:54 PM 73.4 °F - 68.0 °F 83% 29.89 in 10.0 mi West 6.9 mph - N/A   Clear
11:14 PM 73.4 °F - 68.0 °F 83% 29.90 in 10.0 mi WSW 6.9 mph - N/A   Clear
11:33 PM 73.4 °F - 68.0 °F 83% 29.89 in 10.0 mi WSW 5.8 mph - N/A   Clear
11:54 PM 71.6 °F - 68.0 °F 88% 29.88 in 10.0 mi SW 5.8 mph - N/A   Clear